TimeEDT,TemperatureF,Dew PointF,Humidity,Sea Level PressureIn,VisibilityMPH,Wind Direction,Wind SpeedMPH,Gust SpeedMPH,PrecipitationIn,Events,Conditions,WindDirDegrees,DateUTC
12:58 AM,80.8,72.7,76,29.96,10.0,NNE,9.2,-,N/A,,Clear,30,2013-09-08 04:58:00
1:58 AM,80.2,72.9,78,29.96,10.0,NNE,8.1,-,N/A,,Clear,30,2013-09-08 05:58:00
2:58 AM,79.7,72.7,79,29.95,10.0,NNE,9.2,-,N/A,,Clear,30,2013-09-08 06:58:00
3:58 AM,80.1,72.7,78,29.93,10.0,NNE,8.1,-,N/A,,Clear,30,2013-09-08 07:58:00
4:58 AM,79.5,71.2,76,29.93,10.0,North,5.8,-,N/A,,Clear,10,2013-09-08 08:58:00
5:58 AM,79.3,70.7,75,29.94,10.0,North,8.1,-,N/A,,Clear,360,2013-09-08 09:58:00
6:58 AM,79.7,72.7,79,29.95,10.0,North,6.9,-,N/A,,Clear,10,2013-09-08 10:58:00
7:58 AM,80.8,73.0,77,29.95,10.0,North,6.9,-,N/A,,Clear,360,2013-09-08 11:58:00
8:58 AM,83.1,73.0,71,29.96,10.0,North,8.1,-,N/A,,Clear,10,2013-09-08 12:58:00
9:58 AM,85.1,73.0,67,29.98,10.0,NE,11.5,-,N/A,,Clear,40,2013-09-08 13:58:00
10:58 AM,86.4,72.9,64,29.98,10.0,NE,10.4,-,N/A,,Clear,40,2013-09-08 14:58:00
11:58 AM,86.5,72.9,64,29.98,10.0,NE,11.5,-,N/A,,Clear,40,2013-09-08 15:58:00
12:58 PM,87.3,70.2,57,29.96,10.0,NE,10.4,-,N/A,,Clear,40,2013-09-08 16:58:00
1:58 PM,87.6,73.4,63,29.95,10.0,ENE,10.4,-,N/A,,Clear,60,2013-09-08 17:58:00
2:58 PM,88.0,73.6,62,29.93,10.0,NE,13.8,-,N/A,,Clear,50,2013-09-08 18:58:00
3:58 PM,87.4,73.0,62,29.91,10.0,ENE,12.7,-,N/A,,Clear,60,2013-09-08 19:58:00
4:58 PM,85.6,73.4,67,29.91,10.0,NE,16.1,-,N/A,,Clear,40,2013-09-08 20:58:00
5:58 PM,84.6,73.6,69,29.91,10.0,NE,15.0,-,N/A,,Clear,40,2013-09-08 21:58:00
6:58 PM,82.8,72.3,71,29.93,10.0,ENE,9.2,-,N/A,,Clear,60,2013-09-08 22:58:00
7:58 PM,82.4,70.2,66,29.93,10.0,NE,12.7,-,N/A,,Clear,40,2013-09-08 23:58:00
8:58 PM,82.0,71.1,69,29.96,10.0,NE,12.7,-,N/A,,Overcast,40,2013-09-09 00:58:00
9:58 PM,81.9,72.1,72,29.98,10.0,NNE,12.7,-,N/A,,Clear,30,2013-09-09 01:58:00
10:58 PM,82.0,71.4,70,29.99,10.0,NE,10.4,-,N/A,,Clear,50,2013-09-09 02:58:00
11:58 PM,81.5,71.4,71,29.99,10.0,ENE,6.9,-,N/A,,Clear,70,2013-09-09 03:58:00